Content
SEND FEEDBACK

Daily
Averages
Monthly
Summary
United States of America

NAPLES, FLORIDA


Home > North America > United States > Florida
Elevation: 8 feet     Latitude: 26 09N     Longitude: 081 46W

WEATHER
 
SELECT A DAY
Number of Records: 218,366;   Date Range: 1/1/95 - 9/14/14
 
SHARE

PRINT THIS DATA

[ ← Previous Day ]
WEATHER ALMANAC - JANUARY 31, 2013
[ Next Day → ]
[ °C ]   °F
Weather ElementAverageHighLow
Temperature63.4 °F73 °F (2:53 am)52 °F (11:53 pm)
Dewpoint56.8 °F71.1 °F (2:53 am)35.1 °F (9:53 pm)
Humidity81.1 %100 % (6:08 am)44 % (7:53 pm)
Barometer30.09 in30.21 in (10:53 pm)29.95 in (3:53 am)
Wind Speed9.7 mph16.1 mph (5:28 am)
Wind Gust26.5 mph (5:28 am)
Weather ElementAverage
Visibility8.3 mi
Wind DirectionWSW (253.5 °)

Weather ElementTotal
Precipitation0.08 in
Heating Degree Days2.5 (Base 65)
Growing Degree Days12.5 (Base 50)
Averaged from 37 records on January 31, 2013
WEATHER CONDITIONS BREAKOUT
WIND DIRECTION BREAKOUT
WEATHER BY HOUR - JANUARY 31, 2013
[ °C ]   °F
Local TimeTemperatureDewpointHumidityBarometerVisibilityWind DirectionWind SpeedGust SpeedPrecipitationEventsConditions
1:53 AM72.0 °F70.0 °F93 %29.97 in10.0 miSouth (180°)11.5 mphClear
2:53 AM73.0 °F71.1 °F93 %29.96 in10.0 miSouth (180°)11.5 mphMostly Cloudy
3:53 AM72.0 °F71.1 °F97 %29.95 in9.0 miSouth (180°)11.5 mphClear
4:53 AM73.0 °F71.1 °F93 %29.95 in9.0 miSouth (190°)10.4 mphMostly Cloudy
5:28 AM66.2 °F64.4 °F94 %30.00 in8.0 miNNW (330°)16.1 mph26.5 mphOvercast
5:35 AM66.2 °F64.4 °F94 %30.01 in8.0 miNW (320°)15.0 mph24.2 mph0.00 inRainLight Rain
5:45 AM64.4 °F62.6 °F94 %30.02 in10.0 miNNW (340°)16.1 mph26.5 mph0.00 inRainLight Rain
5:53 AM64.0 °F62.1 °F93 %30.02 in10.0 miNNW (340°)10.4 mph24.2 mph0.00 inOvercast
6:08 AM62.6 °F62.6 °F100 %30.03 in10.0 miNorth (350°)12.7 mph20.7 mphOvercast
6:24 AM62.6 °F60.8 °F94 %30.04 in10.0 miNNW (330°)9.2 mph25.3 mphOvercast
6:45 AM62.6 °F60.8 °F94 %30.05 in10.0 miNorth (350°)15.0 mph20.7 mphOvercast
6:53 AM62.1 °F60.1 °F93 %30.05 in8.0 miNorth (350°)10.4 mph20.7 mphOvercast
7:07 AM60.8 °F60.8 °F100 %30.06 in5.0 miNorth (360°)12.7 mph19.6 mph0.00 inRainLight Rain
7:42 AM60.8 °F59.0 °F94 %30.09 in2.0 miNorth (350°)13.8 mph18.4 mph0.01 inRainLight Rain
7:53 AM60.1 °F59.0 °F96 %30.09 in1.8 miNorth (350°)6.9 mph17.3 mph0.03 inRainRain
8:02 AM60.8 °F59.0 °F94 %30.10 in2.5 miNorth (360°)8.1 mph0.00 inRainLight Rain
8:19 AM60.8 °F60.8 °F100 %30.10 in5.0 miNorth (10°)6.9 mph0.01 inRainLight Rain
8:26 AM60.8 °F60.8 °F100 %30.10 in5.0 miVariable6.9 mph0.01 inOvercast
8:39 AM60.8 °F59.0 °F94 %30.11 in5.0 miNorth (360°)5.8 mph0.01 inOvercast
8:53 AM60.1 °F59.0 °F96 %30.11 in7.0 miNE (50°)4.6 mph0.01 inOvercast
9:53 AM62.1 °F60.1 °F93 %30.12 in5.0 miNNE (20°)6.9 mph0.00 inOvercast
10:53 AM63.0 °F57.9 °F84 %30.14 in9.0 miNorth (10°)9.2 mphOvercast
11:30 AM62.6 °F57.2 °F82 %30.15 in9.0 miNorth (10°)9.2 mphOvercast
11:53 AM64.0 °F57.9 °F80 %30.14 in9.0 miNorth (10°)6.9 mphOvercast
12:53 PM66.0 °F57.9 °F75 %30.11 in9.0 miVariable6.9 mphOvercast
1:53 PM68.0 °F57.0 °F68 %30.09 in10.0 miNNW (340°)6.9 mphMostly Cloudy
2:17 PM66.2 °F57.2 °F73 %30.10 in10.0 miNW (310°)9.2 mphMostly Cloudy
2:53 PM68.0 °F55.9 °F65 %30.10 in10.0 miNW (320°)9.2 mphScattered Clouds
3:53 PM66.0 °F54.0 °F65 %30.11 in10.0 miNW (320°)13.8 mph20.7 mphMostly Cloudy
4:53 PM66.0 °F54.0 °F65 %30.11 in10.0 miNW (320°)12.7 mphClear
5:53 PM64.9 °F52.0 °F63 %30.12 in10.0 miNW (320°)8.1 mphClear
6:53 PM63.0 °F42.1 °F46 %30.14 in10.0 miNNW (340°)9.2 mphClear
7:53 PM60.1 °F37.9 °F44 %30.16 in10.0 miNorth (350°)6.9 mphClear
8:53 PM57.9 °F36.0 °F44 %30.19 in10.0 miNorth (350°)8.1 mphClear
9:53 PM55.0 °F35.1 °F47 %30.20 in10.0 miNorth (360°)4.6 mphClear
10:53 PM54.0 °F35.1 °F49 %30.21 in10.0 miNorth (360°)6.9 mphClear
11:53 PM52.0 °F35.1 °F53 %30.21 in10.0 miNorth (360°)8.1 mphClear
Hourly data recorded from KAPF, located miles away from Naples, Florida







STORIES FROM OUR PARTNERS